851  
ASUS41 KAKQ 221411  
RWRAKQ  
 
REGIONAL WEATHER ROUNDUP  
NATIONAL WEATHER SERVICE WAKEFIELD VA  
900 AM EST THU FEB 22 2024  
 
NOTE: "FAIR" INDICATES FEW OR NO CLOUDS BELOW 12,000 FEET WITH NO  
SIGNIFICANT WEATHER AND/OR S TO VISIBILITY
. * = DENOTES  
STATION MAY NOT REPORT PRECIPITATION (E.G., RAIN,SNOW,ETC.),
 
THUNDER OR FOG.  
 
VAZ042-051-052>054-056-221500-  
NORTHERN VIRGINIA  
 
CITY SKY/WX TMP DP RH WIND PRES REMARKS
 
WASH NATIONAL PTSUNNY 39 35 86 S13 30.08F  
DULLES PTSUNNY 38 32 79 S10 30.04F  
FORT BELVOIR CLOUDY 39 36 87 S6 30.06F  
QUANTICO CLOUDY 38 35 89 S12 30.09  
FREDERICKSBRG* CLOUDY 35 35 100 S6 30.06F  
STAFFORD* CLOUDY 35 31 85 S7 30.07F  
WARRENTON PTSUNNY 39 34 81 S8 30.05F  
CULPEPER* MOSUNNY 39 33 78 SW7 30.06F  
MANASSAS* CLOUDY 38 35 89 S10 30.06F  
LEESBURG* CLOUDY 36 34 93 S10 30.05F  
WINCHESTER CLOUDY 34 28 80 CALM 29.97F  
FRONT ROYAL* CLOUDY 34 30 86 CALM 29.97F  
LURAY* CLOUDY 36 32 87 CALM 29.97F  

 
 
VAZ048-049-060>072-079>083-221500-  
CENTRAL AND SOUTH CENTRAL VIRGINIA  
 
CITY SKY/WX TMP DP RH WIND PRES REMARKS
 
RICHMOND MOSUNNY 39 35 86 S9 30.09F  
CHESTERFIELD* SUNNY 37 37 100 S8 30.09F  
PETERSBURG* SUNNY 37 35 94 CALM 30.11F  
HANOVER SUNNY 39 35 86 S10 30.09F  
TAPPAHANNOCK* CLOUDY 35 35 100 CALM 30.10F FOG  
QUINTON* SUNNY 36 34 93 SE5 30.10F  
CHARLOTTSVILLE CLOUDY 38 29 70 S7 30.02F  
GORDONSVILLE* PTSUNNY 37 33 85 SW7 30.04F  
ORANGE* MOSUNNY 36 32 87 S8 30.06F  
LOUISA* NOT AVBL  
BUMPASS* PTSUNNY 35 34 93 S5 30.06F  
FARMVILLE* PTSUNNY 37 33 87 CALM 30.05F  
CREWE* MOSUNNY 37 33 84 S6G16 30.07F  
FORT PICKETT* SUNNY 38 35 88 S5 30.07F  
CHASE CITY* MOSUNNY 41 34 74 S5 30.06F  
CLARKSVILLE* PTSUNNY 41 34 75 S3 30.06F  
SOUTH HILL* SUNNY 39 37 94 S8 30.14F  
LAWRENCEVILLE* SUNNY 38 37 93 S5 30.10F  
EMPORIA* N/A N/A N/A N/A MISG N/A  

 
 
VAZ088>098-221500-  
SOUTHEAST VIRGINIA  
 
CITY SKY/WX TMP DP RH WIND PRES REMARKS
 
NORFOLK SUNNY 43 38 82 S6 30.12F  
VIRGINIA BEACH MOSUNNY 44 39 82 SE3 30.12F  
NORFOLK NAVAL PTSUNNY 44 38 79 S6 30.14R  
WEST POINT* PTSUNNY 37 37 100 CALM 30.12S  
SALUDA* SUNNY 40 36 84 S6 30.11F  
NEWPORT NEWS SUNNY 42 38 85 S6 30.12F  
LANGLEY AFB MOSUNNY 44 37 78 S8 30.12S  
FORT EUSTIS MOSUNNY 44 38 79 S7 30.09F  
WILLIAMSBURG* NOT AVBL  
HR EXEC AP* SUNNY 40 38 93 S3 30.14S  
FRANKLIN* MOSUNNY 38 35 89 S6 30.14S  
US460-WAKEFLD MOSUNNY 38 35 89 S6 30.12F  

 
 
VAZ020-022-025-037-045-221500-  
WEST CENTRAL AND SOUTHWEST VIRGINIA  
 
CITY SKY/WX TMP DP RH WIND PRES REMARKS
 
STAUNTON* LGT RAIN 40 32 73 CALM 29.99F  
WAYNESBORO* CLOUDY 39 31 73 CALM 29.97F  
HOT SPRINGS VA CLOUDY 44 29 57 SW12 29.92F HAZE  
LYNCHBURG PTSUNNY 39 31 72 S7 30.01F  
DANVILLE PTSUNNY 42 31 64 VRB5 30.05F  
SOUTH BOSTON* MOSUNNY 41 31 69 CALM 30.06F  
MARTINSVILLE MOSUNNY 41 31 67 S5 30.05F  
ROANOKE CLOUDY 40 30 67 VRB3 30.03F  
BLACKSBURG CLOUDY 43 31 62 CALM 30.01S  
DUBLIN* MOSUNNY 38 32 77 CALM 29.98S  
MARION* MOSUNNY 39 31 72 SE3 29.99F  
HILLSVILLE* MOSUNNY 44 28 53 S8 29.97F  
RICHLANDS* PTSUNNY 53 36 51 SW12G18 29.93F  
WISE* CLOUDY 50 32 50 S17G24 29.95S  
ABINGDON* CLOUDY 45 32 59 SE3 29.96F  

 
 
MDZ021>025-VAZ099-100-221500-  
SOUTHERN MARYLAND AND THE DELMARVA PENINSULA  
 
CITY SKY/WX TMP DP RH WIND PRES REMARKS
 
PATUXENT RIVER SUNNY 44 36 73 S8 30.08F  
BAY BRIDGE APT MOSUNNY 40 35 85 S10 30.09F  
LEONARDTOWN SUNNY 37 36 93 SE3 30.10F  
DOVER SUNNY 39 33 77 S9 30.09F  
GEORGETOWN SUNNY 38 33 82 S7 30.10F  
EASTON SUNNY 39 34 81 S7 30.09F  
CAMBRIDGE N/A 37 37 100 MISG 30.10F  
SALISBURY SUNNY 40 33 76 SE7 30.10F  
TANGIER SUNNY 42 37 83 SE9 30.11F  
OCEAN CITY SUNNY 43 34 70 SE7 30.11F  
WALLOPS ISLAND SUNNY 41 36 82 SE10 30.11F  
ACCOMACK* SUNNY 39 35 85 SE5 30.12F  

 
 
NCZ012>017-030>032-221500-  
NORTH CENTRAL AND EASTERN NORTH CAROLINA  
 
CITY SKY/WX TMP DP RH WIND PRES REMARKS
 
ROANOKE RAPIDS MOSUNNY 36 36 100 S3 30.12F  
RALEIGH PTSUNNY 48 32 53 SW9 30.10F  
ELIZABETH CITY SUNNY 42 40 92 CALM 30.14F  
AHOSKIE* MOSUNNY 34 34 100 S5 30.14S  
EDENTON* SUNNY 42 42 100 CALM 30.15F  
CURRITUCK* SUNNY 41 38 92 CALM 30.14S  
KILL DEVIL HLS MOSUNNY 43 41 93 CALM 30.12F  
MANTEO SUNNY 43 40 89 NE3 30.14F  
CAPE HATTERAS SUNNY 47 42 83 MISG 30.14F  
TARBORO* SUNNY 38 36 92 SE5 30.14F FOG  
GOLDSBORO MOSUNNY 43 36 77 S5 30.11F  
WASHINGTON MOSUNNY 39 38 95 SE3 30.17R  
GREENVILLE SUNNY 39 39 100 S3 30.15S  
NEW BERN FOG 40 40 100 CALM 30.17S VSB 3/4  
WILMINGTON MOSUNNY 45 39 79 CALM 30.16F  

 
 
VAZ048-221500-  
ELSEWHERE  
 
CITY SKY/WX TMP DP RH WIND PRES REMARKS
 
HARRISBURG PA CLOUDY 36 31 82 S10 30.03F  
BALTIMORE PTSUNNY 37 33 85 S3 30.07F  
ANNAPOLIS CLOUDY 40 35 83 S12 30.08F  
ANDREWS AFB MOSUNNY 39 34 83 S9 30.05F  
PHILADELPHIA MOSUNNY 36 29 75 S7 30.09F  
HENDERSON NC MOSUNNY 39 32 74 S7 30.08F  
GREENSBORO PTSUNNY 46 31 55 S12 30.04F  
ROCKY MOUNT MOSUNNY 42 37 82 S6 30.12F  

 
 
VAZ100-221500-  
MARINE  
 
STATION/POSITION TIME TEMP WIND PRES WAVE SWELL
 
AIR SEA DIR/SP/G HT/PER HT/PER  
(UTC) (F) (DEG/KT/KT) (MB) (FT/S) (FT/S)  
CAPE MAY NJ 1330 38 44 130/ 10/ 11 1019.6F  
LEWES DE 1330 40 41 150/ 5/ 8 1019.9F  
15NM E FENWICK I 1350 41 44 130/ 8/ 12 1019.5F 7/12 7/12  
OCEAN-CITY-INLET 1330 41 42 150/ 5/ 7 1018.3F  
44089 WALLOPS IS 1356 43 N/A 6/11 3/11  
WACHAPREAGUE VA 1330 44 42 CALM / 1 1019.6F  
THOMAS POINT MD 1400 38 150/ 15/ 16 1019.4F  
GOOSES REEF MD 1348 36 42 160/ 16/ 21 N/A 1/ 3  
COVE POINT MD 1330 39 100/ 11/ 14 1019.3F  
SOLOMONS ISLAND 1330 40 44 180/ 9/ 11 1018.9F  
BISHOPS HEAD MD 1330 39 41 160/ 10/ 10 1019.5F  
PINEY POINT MD 1330 180/ 10/ 11 N/A  
POTOMAC MD 1342 38 43 170/ 10/ 12 N/A  
CAMBRIDGE MD 1330 37 42 150/ 6/ 9 1019.9F  
LEWISETTA VA 1330 38 44 190/ 4/ 5 1019.4F  
RAPPAHANNOCK LGT 1330 140/ 7/ 8 1021.3S  
STINGRAY PT 1342 41 44 160/ 12/ 16 N/A  
YORKTOWN VA 1330 42 45 150/ 5/ 6 1019.7F  
JAMESTOWN VA 1342 38 47 150/ 10/ 12 N/A  
DOMINION TERM VA 1330 41 160/ 5/ 6 1020.7R  
KIPTOPEKE VA 1330 42 44 130/ 5/ 8 1021.0F  
CHES BAY BRIDGE 1330 42 140/ 5/ 7 1018.6F  
CAPE HENRY VA 1330 42 130/ 6/ 9 1020.2F  
WILLOUBY STN VA 1330 41 170/ 4/ 5 1020.6R  
S CRANEY ISL VA 1330 40 200/ 4/ 5 1020.4R  
CAPE HENRY BUOY 1356 44 N/A 5/14 3/14  
1ST LANDING BUOY 1342 43 44 140/ 6/ 10 N/A 2/ 8  
64NM E OF VA BCH 1350 45 47 40/ 6/ 10 1020.5F 9/12 10/12  
DUCK PIER NC 1330 43 40/ 3/ 3 1020.2F  
44100 DUCK FRF 1330 44 45 N/A 7/13 7/13  
44056 DUCK FRF 1356 44 N/A 7/13 5/13  
OREGON INLET NC 1330 44 46 30/ 3/ 5 1021.6F  
HATTERAS NC 1330 42 47 20/ 5/ 6 1021.0F  
DIAMOND SHLS NC 1350 48 360/ 10/ 12 1020.4F 7/13  

 
 
 
CLICK HERE TO GO TO PREVIOUS BULLETINS.

The Nexlab VA Page
The Nexlab NC Page
The Nexlab MD Page Main Text Page